Location: Buisson
(44.2787°N, 4.9969°E)
Time: 06:16:13
(UTC+00:00)

COSMOS 2441 - Pass Details

Date: 18 April 2021
Orbit: 708 x 731 km, 98.1° (Epoch: 06 May)

Event Time Altitude Azimuth Distance (km) Brightness Sun altitude
Rises 03:14:55 0° 9° (N) 3,135 8.3 -16.4°
Reaches altitude 10° 03:17:12 10° 6° (N) 2,214 7.4 -16.1°
Maximum altitude 03:21:58 60° 288° (WNW) 827 4.5 -15.4°
Enters shadow 03:25:12 21° 213° (SSW) 1,612 5.6 -14.9°
